7 * 24
多渠道服务支持
STARLINK-33676是美国SpaceX星链(Starlink)星座的一员,于2025年3月31日发射入轨。星链项目旨在通过部署近地轨道卫星网络,为全球提供高速低延迟宽带互联网服务,填补偏远地区网络覆盖空白,同时支持民用、商用及特殊场景接入需求。作为新一代星链卫星,它延续了批量生产的设计思路,助力SpaceX扩容星座规模,完善全球覆盖能力,目前已在轨稳定运行近一年,参与支撑星链网络的服务能力提升。
美国
(US)
| 数据来源 | 国际轨道数据 |
| 星历时间: | 2026-06-13T22:59:21+0800 14小时前 查看轨道信息 |
| 半长轴: | 6861.193km |
| 偏心率: | 0.0002098 |
| 轨道倾角: | 42.998° |
| 近地点辐角 | 273.175° |
| 升交点赤经 | 285.143° |
| 平近点角 | 86.886° |
| 近地点: | 481.616km |
| 远地点: | 484.496km |
| 周期: | 94.267分钟 |
| 每日圈数: | 15.275777 |